Time,TemperatureF,DewpointF,PressureIn,WindDirection,WindDirectionDegrees,WindSpeedMPH,WindSpeedGustMPH,Humidity,HourlyPrecipIn,Conditions,Clouds,dailyrainin,SoftwareType,DateUTC
2013-02-26 00:00:00,47.3,30.1,29.88,WNW,291,4.6,4.8,51,0.00,RA,,0.00,WeatherDisplay:10.37,2013-02-26 06:00:00,
2013-02-26 00:05:00,47.0,30.3,29.88,NW,305,13.8,13.8,52,0.00,RA,,0.00,WeatherDisplay:10.37,2013-02-26 06:05:00,
2013-02-26 00:10:00,47.0,30.3,29.87,WSW,256,9.2,9.2,52,0.00,CLR,,0.00,WeatherDisplay:10.37,2013-02-26 06:10:00,
2013-02-26 00:15:00,47.1,30.4,29.87,WNW,288,10.4,10.4,52,0.00,CLR,,0.00,WeatherDisplay:10.37,2013-02-26 06:15:00,
2013-02-26 00:20:00,46.9,30.2,29.88,WNW,290,8.1,8.1,52,0.00,CLR,,0.00,WeatherDisplay:10.37,2013-02-26 06:20:00,
2013-02-26 00:25:00,46.7,30.0,29.88,West,269,9.2,9.2,52,0.00,CLR,,0.00,WeatherDisplay:10.37,2013-02-26 06:25:00,
2013-02-26 00:30:00,46.4,30.2,29.88,WNW,303,9.2,9.2,53,0.00,CLR,,0.00,WeatherDisplay:10.37,2013-02-26 06:30:00,
2013-02-26 00:35:00,46.5,30.3,29.88,West,281,9.2,9.2,53,0.00,CLR,,0.00,WeatherDisplay:10.37,2013-02-26 06:35:00,
2013-02-26 00:40:00,46.4,30.2,29.88,West,275,9.2,9.2,53,0.00,CLR,,0.00,WeatherDisplay:10.37,2013-02-26 06:40:00,
2013-02-26 00:45:00,46.3,30.1,29.88,South,183,10.4,10.4,53,0.00,CLR,,0.00,WeatherDisplay:10.37,2013-02-26 06:45:00,
2013-02-26 00:50:00,46.3,30.1,29.88,West,267,8.1,8.1,53,0.00,CLR,,0.00,WeatherDisplay:10.37,2013-02-26 06:50:00,
2013-02-26 00:55:00,46.1,29.9,29.88,West,262,8.1,8.1,53,0.00,CLR,,0.00,WeatherDisplay:10.37,2013-02-26 06:55:00,
2013-02-26 01:00:00,46.0,30.3,29.88,NW,316,9.2,9.2,54,0.00,CLR,,0.00,WeatherDisplay:10.37,2013-02-26 07:00:00,
2013-02-26 01:05:00,45.9,30.2,29.88,WNW,294,8.1,8.1,54,0.00,CLR,,0.00,WeatherDisplay:10.37,2013-02-26 07:05:00,
2013-02-26 01:10:00,45.7,30.0,29.88,West,264,6.9,6.9,54,0.00,CLR,,0.00,WeatherDisplay:10.37,2013-02-26 07:10:00,
2013-02-26 01:15:00,45.6,29.9,29.88,WSW,256,10.4,10.4,54,0.00,CLR,,0.00,WeatherDisplay:10.37,2013-02-26 07:15:00,
2013-02-26 01:20:00,45.6,29.9,29.88,NW,315,9.2,9.2,54,0.00,CLR,,0.00,WeatherDisplay:10.37,2013-02-26 07:20:00,
2013-02-26 01:25:00,45.5,29.8,29.88,West,276,5.8,5.8,54,0.00,CLR,,0.00,WeatherDisplay:10.37,2013-02-26 07:25:00,
2013-02-26 01:30:00,45.3,30.1,29.88,WSW,248,8.1,8.1,55,0.00,CLR,,0.00,WeatherDisplay:10.37,2013-02-26 07:30:00,
2013-02-26 01:36:00,45.1,29.9,29.88,WSW,246,9.2,9.2,55,0.00,CLR,,0.00,WeatherDisplay:10.37,2013-02-26 07:36:00,
2013-02-26 01:41:00,45.0,29.8,29.88,NW,315,8.1,8.1,55,0.00,CLR,,0.00,WeatherDisplay:10.37,2013-02-26 07:41:00,
2013-02-26 01:46:00,44.9,30.1,29.88,WSW,253,5.8,5.8,56,0.00,CLR,,0.00,WeatherDisplay:10.37,2013-02-26 07:46:00,
2013-02-26 01:51:00,44.8,30.0,29.88,West,278,9.2,9.2,56,0.00,CLR,,0.00,WeatherDisplay:10.37,2013-02-26 07:51:00,
2013-02-26 01:56:00,44.7,30.0,29.88,West,266,4.6,4.6,56,0.00,CLR,,0.00,WeatherDisplay:10.37,2013-02-26 07:56:00,
2013-02-26 02:01:00,44.4,29.7,29.88,SW,235,3.5,3.5,56,0.00,CLR,,0.00,WeatherDisplay:10.37,2013-02-26 08:01:00,
2013-02-26 02:06:00,44.2,29.9,29.88,SW,228,3.5,3.5,57,0.00,CLR,,0.00,WeatherDisplay:10.37,2013-02-26 08:06:00,
2013-02-26 02:11:00,44.0,29.7,29.89,WSW,240,4.6,4.6,57,0.00,CLR,,0.00,WeatherDisplay:10.37,2013-02-26 08:11:00,
2013-02-26 02:16:00,43.8,29.5,29.88,SW,219,3.5,3.5,57,0.00,CLR,,0.00,WeatherDisplay:10.37,2013-02-26 08:16:00,
2013-02-26 02:21:00,43.5,29.7,29.88,West,281,2.3,2.3,58,0.00,CLR,,0.00,WeatherDisplay:10.37,2013-02-26 08:21:00,
2013-02-26 02:26:00,43.3,29.5,29.89,WNW,284,4.6,4.6,58,0.00,CLR,,0.00,WeatherDisplay:10.37,2013-02-26 08:26:00,
2013-02-26 02:31:00,43.1,29.3,29.89,West,266,3.5,3.5,58,0.00,CLR,,0.00,WeatherDisplay:10.37,2013-02-26 08:31:00,
2013-02-26 02:36:00,42.8,29.5,29.89,West,280,2.3,2.3,59,0.00,CLR,,0.00,WeatherDisplay:10.37,2013-02-26 08:36:00,
2013-02-26 02:41:00,42.7,29.4,29.89,WNW,294,3.5,3.5,59,0.00,CLR,,0.00,WeatherDisplay:10.37,2013-02-26 08:41:00,
2013-02-26 02:46:00,42.4,29.5,29.89,West,262,1.1,1.1,60,0.00,CLR,,0.00,WeatherDisplay:10.37,2013-02-26 08:46:00,
2013-02-26 02:51:00,42.1,29.2,29.89,WNW,288,3.5,3.5,60,0.00,CLR,,0.00,WeatherDisplay:10.37,2013-02-26 08:51:00,
2013-02-26 02:56:00,41.9,29.4,29.89,SW,222,3.5,3.5,61,0.00,CLR,,0.00,WeatherDisplay:10.37,2013-02-26 08:56:00,
2013-02-26 03:01:00,41.8,29.3,29.89,West,270,3.5,3.5,61,0.00,CLR,,0.00,WeatherDisplay:10.37,2013-02-26 09:01:00,
2013-02-26 03:06:00,41.8,29.3,29.89,West,281,3.5,3.5,61,0.00,CLR,,0.00,WeatherDisplay:10.37,2013-02-26 09:06:00,
2013-02-26 03:11:00,41.6,29.1,29.89,WNW,284,4.6,4.6,61,0.00,CLR,,0.00,WeatherDisplay:10.37,2013-02-26 09:11:00,
2013-02-26 03:16:00,41.3,28.9,29.89,WNW,288,3.5,3.5,61,0.00,CLR,,0.00,WeatherDisplay:10.37,2013-02-26 09:16:00,
2013-02-26 03:21:00,40.9,28.9,29.89,West,263,3.5,3.5,62,0.00,CLR,,0.00,WeatherDisplay:10.37,2013-02-26 09:21:00,
2013-02-26 03:26:00,40.7,28.7,29.89,WSW,253,3.5,3.5,62,0.00,CLR,,0.00,WeatherDisplay:10.37,2013-02-26 09:26:00,
2013-02-26 03:31:00,40.6,29.0,29.90,WSW,256,3.5,3.5,63,0.00,CLR,,0.00,WeatherDisplay:10.37,2013-02-26 09:31:00,
2013-02-26 03:36:00,40.5,28.9,29.90,West,262,3.5,3.5,63,0.00,CLR,,0.00,WeatherDisplay:10.37,2013-02-26 09:36:00,
2013-02-26 03:41:00,40.7,29.1,29.90,SW,226,5.8,5.8,63,0.00,CLR,,0.00,WeatherDisplay:10.37,2013-02-26 09:41:00,
2013-02-26 03:46:00,40.7,29.1,29.89,WNW,285,3.5,3.5,63,0.00,CLR,,0.00,WeatherDisplay:10.37,2013-02-26 09:46:00,
2013-02-26 03:51:00,40.7,28.7,29.89,WNW,291,2.3,2.3,62,0.00,CLR,,0.00,WeatherDisplay:10.37,2013-02-26 09:51:00,
2013-02-26 03:56:00,40.7,28.7,29.89,West,260,3.5,3.5,62,0.00,CLR,,0.00,WeatherDisplay:10.37,2013-02-26 09:56:00,
2013-02-26 04:01:00,40.4,28.4,29.89,West,259,2.3,2.3,62,0.00,CLR,,0.00,WeatherDisplay:10.37,2013-02-26 10:01:00,
2013-02-26 04:06:00,40.1,28.5,29.89,WSW,241,1.1,0.0,63,0.00,CLR,,0.00,WeatherDisplay:10.37,2013-02-26 10:06:00,
2013-02-26 04:11:00,39.8,28.2,29.89,SW,225,1.1,0.0,63,0.00,CLR,,0.00,WeatherDisplay:10.37,2013-02-26 10:11:00,
2013-02-26 04:16:00,39.5,28.3,29.89,West,274,2.3,2.3,64,0.00,CLR,,0.00,WeatherDisplay:10.37,2013-02-26 10:16:00,
2013-02-26 04:21:00,39.5,28.3,29.89,WSW,258,2.3,2.3,64,0.00,CLR,,0.00,WeatherDisplay:10.37,2013-02-26 10:21:00,
2013-02-26 04:26:00,39.7,28.5,29.89,WSW,256,3.5,3.5,64,0.00,CLR,,0.00,WeatherDisplay:10.37,2013-02-26 10:26:00,
2013-02-26 04:31:00,39.7,28.5,29.89,WNW,288,3.5,3.5,64,0.00,CLR,,0.00,WeatherDisplay:10.37,2013-02-26 10:31:00,
2013-02-26 04:36:00,39.2,28.0,29.88,WNW,291,3.5,3.5,64,0.00,CLR,,0.00,WeatherDisplay:10.37,2013-02-26 10:36:00,
2013-02-26 04:41:00,39.2,28.4,29.88,WNW,291,5.8,5.8,65,0.00,CLR,,0.00,WeatherDisplay:10.37,2013-02-26 10:41:00,
2013-02-26 04:46:00,39.4,28.2,29.88,WNW,288,5.8,5.8,64,0.00,CLR,,0.00,WeatherDisplay:10.37,2013-02-26 10:46:00,
2013-02-26 04:51:00,39.1,28.3,29.88,NW,312,3.5,3.5,65,0.00,CLR,,0.00,WeatherDisplay:10.37,2013-02-26 10:51:00,
2013-02-26 04:56:00,38.6,27.8,29.88,West,270,3.5,3.5,65,0.00,CLR,,0.00,WeatherDisplay:10.37,2013-02-26 10:56:00,
2013-02-26 05:01:00,37.7,27.4,29.88,West,271,3.5,3.5,66,0.00,CLR,,0.00,WeatherDisplay:10.37,2013-02-26 11:01:00,
2013-02-26 05:06:00,37.5,27.9,29.89,WSW,250,1.1,1.1,68,0.00,CLR,,0.00,WeatherDisplay:10.37,2013-02-26 11:06:00,
2013-02-26 05:11:00,37.2,27.6,29.89,WSW,252,0.0,0.0,68,0.00,CLR,,0.00,WeatherDisplay:10.37,2013-02-26 11:11:00,
2013-02-26 05:16:00,36.8,27.6,29.88,WSW,252,0.0,0.0,69,0.00,CLR,,0.00,WeatherDisplay:10.37,2013-02-26 11:16:00,
2013-02-26 05:21:00,37.3,28.4,29.88,WNW,298,2.3,2.3,70,0.00,CLR,,0.00,WeatherDisplay:10.37,2013-02-26 11:21:00,
2013-02-26 05:26:00,38.0,28.7,29.89,WNW,286,3.5,3.5,69,0.00,CLR,,0.00,WeatherDisplay:10.37,2013-02-26 11:26:00,
2013-02-26 05:31:00,38.3,28.7,29.89,West,276,3.5,3.5,68,0.00,CLR,,0.00,WeatherDisplay:10.37,2013-02-26 11:31:00,
2013-02-26 05:36:00,38.5,28.9,29.90,WNW,301,3.5,3.5,68,0.00,CLR,,0.00,WeatherDisplay:10.37,2013-02-26 11:36:00,
2013-02-26 05:41:00,38.8,28.8,29.90,WNW,302,5.8,5.8,67,0.00,CLR,,0.00,WeatherDisplay:10.37,2013-02-26 11:41:00,
2013-02-26 05:46:00,39.1,28.7,29.90,NW,308,6.9,6.9,66,0.00,CLR,,0.00,WeatherDisplay:10.37,2013-02-26 11:46:00,
2013-02-26 05:51:00,39.5,28.7,29.90,NW,305,8.1,8.1,65,0.00,CLR,,0.00,WeatherDisplay:10.37,2013-02-26 11:51:00,
2013-02-26 05:56:00,39.8,28.6,29.90,NNW,337,6.9,6.9,64,0.00,CLR,,0.00,WeatherDisplay:10.37,2013-02-26 11:56:00,
2013-02-26 06:01:00,39.8,28.6,29.90,NW,314,4.6,4.6,64,0.00,CLR,,0.00,WeatherDisplay:10.37,2013-02-26 12:01:00,
2013-02-26 06:06:00,39.8,28.6,29.91,WNW,291,3.5,3.5,64,0.00,CLR,,0.00,WeatherDisplay:10.37,2013-02-26 12:06:00,
2013-02-26 06:11:00,39.3,28.5,29.92,WSW,255,3.5,3.5,65,0.00,CLR,,0.00,WeatherDisplay:10.37,2013-02-26 12:11:00,
2013-02-26 06:16:00,38.4,28.4,29.92,WSW,252,1.1,1.1,67,0.00,CLR,,0.00,WeatherDisplay:10.37,2013-02-26 12:16:00,
2013-02-26 06:21:00,37.8,27.8,29.92,WSW,250,0.0,0.0,67,0.00,CLR,,0.00,WeatherDisplay:10.37,2013-02-26 12:21:00,
2013-02-26 06:26:00,37.4,27.8,29.92,West,276,0.0,0.0,68,0.00,CLR,,0.00,WeatherDisplay:10.37,2013-02-26 12:26:00,
2013-02-26 06:31:00,37.3,28.1,29.92,West,266,2.3,2.3,69,0.00,CLR,,0.00,WeatherDisplay:10.37,2013-02-26 12:31:00,
2013-02-26 06:36:00,37.4,28.2,29.92,West,274,1.1,1.1,69,0.00,CLR,,0.00,WeatherDisplay:10.37,2013-02-26 12:36:00,
2013-02-26 06:41:00,37.3,28.1,29.93,West,279,2.3,2.3,69,0.00,CLR,,0.00,WeatherDisplay:10.37,2013-02-26 12:41:00,
2013-02-26 06:46:00,37.2,28.0,29.93,WNW,284,1.1,1.1,69,0.00,CLR,,0.00,WeatherDisplay:10.37,2013-02-26 12:46:00,
2013-02-26 06:51:00,37.1,27.9,29.93,West,277,2.3,2.3,69,0.00,CLR,,0.00,WeatherDisplay:10.37,2013-02-26 12:51:00,
2013-02-26 06:56:00,36.8,27.6,29.94,WNW,283,2.3,2.3,69,0.00,CLR,,0.00,WeatherDisplay:10.37,2013-02-26 12:56:00,
2013-02-26 07:01:00,36.8,27.6,29.94,West,264,1.1,1.1,69,0.00,CLR,,0.00,WeatherDisplay:10.37,2013-02-26 13:01:00,
2013-02-26 07:06:00,36.7,27.5,29.94,West,263,0.0,0.0,69,0.00,CLR,,0.00,WeatherDisplay:10.37,2013-02-26 13:06:00,
2013-02-26 07:11:00,36.8,27.9,29.94,West,267,0.0,0.0,70,0.00,CLR,,0.00,WeatherDisplay:10.37,2013-02-26 13:11:00,
2013-02-26 07:16:00,37.1,27.9,29.94,WSW,253,1.1,1.1,69,0.00,CLR,,0.00,WeatherDisplay:10.37,2013-02-26 13:16:00,
2013-02-26 07:21:00,37.2,28.0,29.95,WNW,293,0.0,0.0,69,0.00,CLR,,0.00,WeatherDisplay:10.37,2013-02-26 13:21:00,
2013-02-26 07:26:00,37.6,28.3,29.95,West,278,2.3,2.3,69,0.00,CLR,,0.00,WeatherDisplay:10.37,2013-02-26 13:26:00,
2013-02-26 07:31:00,37.9,28.3,29.95,West,281,2.3,2.3,68,0.00,CLR,,0.00,WeatherDisplay:10.37,2013-02-26 13:31:00,
2013-02-26 07:36:00,38.4,28.8,29.96,WNW,285,3.5,3.5,68,0.00,CLR,,0.00,WeatherDisplay:10.37,2013-02-26 13:36:00,
2013-02-26 07:41:00,39.3,28.9,29.95,NW,308,6.9,6.9,66,0.00,CLR,,0.00,WeatherDisplay:10.37,2013-02-26 13:41:00,
2013-02-26 07:46:00,40.0,29.2,29.95,WNW,302,5.8,5.8,65,0.00,CLR,,0.00,WeatherDisplay:10.37,2013-02-26 13:46:00,
2013-02-26 07:51:00,40.7,29.5,29.95,NW,308,6.9,6.9,64,0.00,CLR,,0.00,WeatherDisplay:10.37,2013-02-26 13:51:00,
2013-02-26 07:56:00,41.4,29.7,29.96,WNW,301,11.0,11.0,63,0.00,CLR,,0.00,WeatherDisplay:10.37,2013-02-26 13:56:00,
2013-02-26 08:01:00,42.0,29.9,29.97,WNW,293,8.1,8.1,62,0.00,CLR,,0.00,WeatherDisplay:10.37,2013-02-26 14:01:00,
2013-02-26 08:06:00,42.6,30.1,29.97,WNW,302,6.0,6.0,61,0.00,CLR,,0.00,WeatherDisplay:10.37,2013-02-26 14:06:00,
2013-02-26 08:11:00,43.1,29.7,29.97,WNW,290,6.9,6.9,59,0.00,CLR,,0.00,WeatherDisplay:10.37,2013-02-26 14:11:00,
2013-02-26 08:16:00,43.6,29.8,29.97,NW,304,4.6,4.6,58,0.00,CLR,,0.00,WeatherDisplay:10.37,2013-02-26 14:16:00,
2013-02-26 08:21:00,44.2,29.9,29.97,NW,305,6.9,6.9,57,0.00,CLR,,0.00,WeatherDisplay:10.37,2013-02-26 14:21:00,
2013-02-26 08:26:00,44.4,29.7,29.97,WNW,301,7.0,7.0,56,0.00,CLR,,0.00,WeatherDisplay:10.37,2013-02-26 14:26:00,
2013-02-26 08:31:00,44.7,29.5,29.97,WNW,294,11.5,11.5,55,0.00,CLR,,0.00,WeatherDisplay:10.37,2013-02-26 14:31:00,
2013-02-26 08:36:00,45.3,30.1,29.97,NW,321,9.2,9.2,55,0.00,CLR,,0.00,WeatherDisplay:10.37,2013-02-26 14:36:00,
2013-02-26 08:41:00,46.0,30.3,29.96,NW,321,13.8,13.8,54,0.00,CLR,,0.00,WeatherDisplay:10.37,2013-02-26 14:41:00,
2013-02-26 08:46:00,46.3,29.6,29.96,WNW,298,11.5,11.5,52,0.00,CLR,,0.00,WeatherDisplay:10.37,2013-02-26 14:46:00,
2013-02-26 08:51:00,46.6,29.9,29.96,NW,319,11.5,11.5,52,0.00,CLR,,0.00,WeatherDisplay:10.37,2013-02-26 14:51:00,
2013-02-26 08:56:00,47.0,30.3,29.97,WNW,295,11.5,11.5,52,0.00,CLR,,0.00,WeatherDisplay:10.37,2013-02-26 14:56:00,
2013-02-26 09:01:00,47.3,30.1,29.97,NNW,327,11.5,11.5,51,0.00,CLR,,0.00,WeatherDisplay:10.37,2013-02-26 15:01:00,
2013-02-26 09:06:00,47.8,30.0,29.97,NNW,329,10.4,10.4,50,0.00,CLR,,0.00,WeatherDisplay:10.37,2013-02-26 15:06:00,
2013-02-26 09:11:00,48.4,30.1,29.97,NNE,15,11.5,11.5,49,0.00,CLR,,0.00,WeatherDisplay:10.37,2013-02-26 15:11:00,
2013-02-26 09:16:00,48.6,30.3,29.97,NNW,343,9.2,9.2,49,0.00,CLR,,0.00,WeatherDisplay:10.37,2013-02-26 15:16:00,
2013-02-26 09:21:00,48.9,30.1,29.97,NW,307,11.5,11.5,48,0.00,CLR,,0.00,WeatherDisplay:10.37,2013-02-26 15:21:00,
2013-02-26 09:26:00,49.2,30.3,29.97,WNW,298,11.5,11.5,48,0.00,CLR,,0.00,WeatherDisplay:10.37,2013-02-26 15:26:00,
2013-02-26 09:31:00,49.5,30.6,29.97,NW,319,10.4,10.4,48,0.00,CLR,,0.00,WeatherDisplay:10.37,2013-02-26 15:31:00,
2013-02-26 09:36:00,50.1,30.6,29.97,WNW,290,11.5,11.5,47,0.00,CLR,,0.00,WeatherDisplay:10.37,2013-02-26 15:36:00,
2013-02-26 09:41:00,50.4,29.8,29.97,NW,314,11.5,11.5,45,0.00,CLR,,0.00,WeatherDisplay:10.37,2013-02-26 15:41:00,
2013-02-26 09:46:00,50.6,31.1,29.97,NNW,330,8.1,8.1,47,0.00,CLR,,0.00,WeatherDisplay:10.37,2013-02-26 15:46:00,
2013-02-26 09:51:00,50.9,30.3,29.97,WNW,301,11.5,11.5,45,0.00,CLR,,0.00,WeatherDisplay:10.37,2013-02-26 15:51:00,
2013-02-26 09:56:00,51.2,30.6,29.98,NNW,343,9.2,9.2,45,0.00,CLR,,0.00,WeatherDisplay:10.37,2013-02-26 15:56:00,
2013-02-26 10:01:00,51.4,30.2,29.98,North,354,10.4,10.4,44,0.00,CLR,,0.00,WeatherDisplay:10.37,2013-02-26 16:01:00,
2013-02-26 10:06:00,51.4,30.7,29.98,WNW,300,8.1,8.1,45,0.00,CLR,,0.00,WeatherDisplay:10.37,2013-02-26 16:06:00,
2013-02-26 10:11:00,51.8,31.1,29.98,WNW,285,8.1,8.1,45,0.00,CLR,,0.00,WeatherDisplay:10.37,2013-02-26 16:11:00,
2013-02-26 10:16:00,52.3,30.4,29.98,NW,305,11.5,11.5,43,0.00,CLR,,0.00,WeatherDisplay:10.37,2013-02-26 16:16:00,
2013-02-26 10:21:00,52.8,30.3,29.98,North,353,8.1,8.1,42,0.00,CLR,,0.00,WeatherDisplay:10.37,2013-02-26 16:21:00,
2013-02-26 10:26:00,52.7,30.2,29.98,NW,326,9.2,9.2,42,0.00,CLR,,0.00,WeatherDisplay:10.37,2013-02-26 16:26:00,
2013-02-26 10:31:00,52.8,30.3,29.98,NNW,328,10.4,10.4,42,0.00,CLR,,0.00,WeatherDisplay:10.37,2013-02-26 16:31:00,
2013-02-26 10:36:00,53.3,30.2,29.97,NW,307,10.4,10.4,41,0.00,CLR,,0.00,WeatherDisplay:10.37,2013-02-26 16:36:00,
2013-02-26 10:41:00,53.9,30.1,29.97,NNE,13,6.9,6.9,40,0.00,CLR,,0.00,WeatherDisplay:10.37,2013-02-26 16:41:00,
2013-02-26 10:46:00,54.2,30.4,29.97,NW,311,10.4,10.4,40,0.00,CLR,,0.00,WeatherDisplay:10.37,2013-02-26 16:46:00,
2013-02-26 10:51:00,54.5,30.6,29.98,NNW,336,4.6,4.7,40,0.00,CLR,,0.00,WeatherDisplay:10.37,2013-02-26 16:51:00,
2013-02-26 10:56:00,54.7,29.6,29.97,WNW,299,8.1,8.1,38,0.00,CLR,,0.00,WeatherDisplay:10.37,2013-02-26 16:56:00,
2013-02-26 11:01:00,55.1,29.9,29.97,NNE,12,5.8,5.8,38,0.00,CLR,,0.00,WeatherDisplay:10.37,2013-02-26 17:01:00,
2013-02-26 11:06:00,56.4,31.1,29.97,NNW,340,5.8,5.8,38,0.00,CLR,,0.00,WeatherDisplay:10.37,2013-02-26 17:06:00,
2013-02-26 11:11:00,56.3,30.3,29.97,NW,309,10.0,10.0,37,0.00,CLR,,0.00,WeatherDisplay:10.37,2013-02-26 17:11:00,
2013-02-26 11:16:00,56.6,29.2,29.97,NW,322,11.5,11.5,35,0.00,CLR,,0.00,WeatherDisplay:10.37,2013-02-26 17:16:00,
2013-02-26 11:21:00,56.7,30.0,29.97,NNW,328,9.2,9.2,36,0.00,CLR,,0.00,WeatherDisplay:10.37,2013-02-26 17:21:00,
2013-02-26 11:26:00,58.0,29.8,29.97,NW,311,10.0,10.0,34,0.00,CLR,,0.00,WeatherDisplay:10.37,2013-02-26 17:26:00,
2013-02-26 11:31:00,57.7,29.5,29.97,NNW,345,6.9,6.9,34,0.00,CLR,,0.00,WeatherDisplay:10.37,2013-02-26 17:31:00,
2013-02-26 11:36:00,57.6,28.7,29.96,NW,321,6.9,6.9,33,0.00,CLR,,0.00,WeatherDisplay:10.37,2013-02-26 17:36:00,
2013-02-26 11:41:00,58.5,29.5,29.96,NNE,18,8.1,8.1,33,0.00,CLR,,0.00,WeatherDisplay:10.37,2013-02-26 17:41:00,
2013-02-26 11:46:00,58.8,30.5,29.96,NNW,332,8.1,8.1,34,0.00,CLR,,0.00,WeatherDisplay:10.37,2013-02-26 17:46:00,
2013-02-26 11:51:00,59.7,29.0,29.96,NW,322,6.9,6.9,31,0.00,CLR,,0.00,WeatherDisplay:10.37,2013-02-26 17:51:00,
2013-02-26 11:56:00,59.7,27.4,29.96,SSW,207,10.4,10.4,29,0.00,CLR,,0.00,WeatherDisplay:10.37,2013-02-26 17:56:00,
2013-02-26 12:01:00,60.0,28.4,29.95,NNW,328,6.9,6.9,30,0.00,CLR,,0.00,WeatherDisplay:10.37,2013-02-26 18:01:00,
2013-02-26 12:06:00,60.9,28.4,29.95,WSW,242,9.2,9.2,29,0.00,CLR,,0.00,WeatherDisplay:10.37,2013-02-26 18:06:00,
2013-02-26 12:11:00,60.7,28.2,29.94,WSW,243,4.6,4.6,29,0.00,CLR,,0.00,WeatherDisplay:10.37,2013-02-26 18:11:00,
2013-02-26 12:16:00,60.7,28.2,29.94,WNW,294,3.5,3.5,29,0.00,CLR,,0.00,WeatherDisplay:10.37,2013-02-26 18:16:00,
2013-02-26 12:21:00,61.3,27.9,29.93,WSW,238,10.4,10.4,28,0.00,CLR,,0.00,WeatherDisplay:10.37,2013-02-26 18:21:00,
2013-02-26 12:26:00,61.2,28.7,29.93,WSW,243,5.0,5.0,29,0.00,CLR,,0.00,WeatherDisplay:10.37,2013-02-26 18:26:00,
2013-02-26 12:31:00,62.2,29.5,29.93,SSW,206,6.9,6.9,29,0.00,CLR,,0.00,WeatherDisplay:10.37,2013-02-26 18:31:00,
2013-02-26 12:36:00,62.4,27.9,29.93,SW,236,10.4,10.4,27,0.00,CLR,,0.00,WeatherDisplay:10.37,2013-02-26 18:36:00,
2013-02-26 12:41:00,62.0,28.5,29.92,NW,307,8.1,8.1,28,0.00,CLR,,0.00,WeatherDisplay:10.37,2013-02-26 18:41:00,
2013-02-26 12:46:00,62.2,27.8,29.92,WNW,283,8.1,8.1,27,0.00,CLR,,0.00,WeatherDisplay:10.37,2013-02-26 18:46:00,
2013-02-26 12:51:00,62.1,27.7,29.92,NNW,343,6.9,6.9,27,0.00,CLR,,0.00,WeatherDisplay:10.37,2013-02-26 18:51:00,
2013-02-26 12:56:00,62.5,28.0,29.92,WSW,242,7.0,7.0,27,0.00,CLR,,0.00,WeatherDisplay:10.37,2013-02-26 18:56:00,
2013-02-26 13:01:00,62.4,27.0,29.91,SW,219,10.4,10.4,26,0.00,CLR,,0.00,WeatherDisplay:10.37,2013-02-26 19:01:00,
2013-02-26 13:06:00,62.4,27.0,29.91,SW,214,8.1,8.1,26,0.00,CLR,,0.00,WeatherDisplay:10.37,2013-02-26 19:06:00,
2013-02-26 13:12:00,63.1,29.4,29.91,SW,222,11.5,11.5,28,0.00,CLR,,0.00,WeatherDisplay:10.37,2013-02-26 19:12:00,
2013-02-26 13:17:00,62.8,29.2,29.91,SSE,162,11.5,11.5,28,0.00,CLR,,0.00,WeatherDisplay:10.37,2013-02-26 19:17:00,
2013-02-26 13:22:00,63.0,28.5,29.91,SSE,152,10.4,10.4,27,0.00,CLR,,0.00,WeatherDisplay:10.37,2013-02-26 19:22:00,
2013-02-26 13:27:00,63.2,28.6,29.90,WSW,238,9.2,9.2,27,0.00,CLR,,0.00,WeatherDisplay:10.37,2013-02-26 19:27:00,
2013-02-26 13:32:00,63.1,28.5,29.90,SSW,207,10.4,10.4,27,0.00,CLR,,0.00,WeatherDisplay:10.37,2013-02-26 19:32:00,
2013-02-26 13:37:00,63.1,27.6,29.90,WSW,239,11.5,11.5,26,0.00,CLR,,0.00,WeatherDisplay:10.37,2013-02-26 19:37:00,
2013-02-26 13:42:00,63.2,27.7,29.89,SW,232,13.8,13.8,26,0.00,CLR,,0.00,WeatherDisplay:10.37,2013-02-26 19:42:00,
2013-02-26 13:47:00,63.1,27.6,29.90,SSW,201,12.7,12.7,26,0.00,CLR,,0.00,WeatherDisplay:10.37,2013-02-26 19:47:00,
2013-02-26 13:52:00,63.3,28.7,29.89,South,172,8.1,8.1,27,0.00,CLR,,0.00,WeatherDisplay:10.37,2013-02-26 19:52:00,
2013-02-26 13:57:00,63.3,27.8,29.89,South,188,9.0,9.0,26,0.00,CLR,,0.00,WeatherDisplay:10.37,2013-02-26 19:57:00,
2013-02-26 14:02:00,63.5,28.0,29.89,SSW,195,11.5,11.5,26,0.00,CLR,,0.00,WeatherDisplay:10.37,2013-02-26 20:02:00,
2013-02-26 14:07:00,63.7,27.2,29.89,South,187,5.8,5.8,25,0.00,CLR,,0.00,WeatherDisplay:10.37,2013-02-26 20:07:00,
2013-02-26 14:12:00,64.1,28.5,29.89,SSW,203,10.4,10.4,26,0.00,CLR,,0.00,WeatherDisplay:10.37,2013-02-26 20:12:00,
2013-02-26 14:17:00,64.4,27.8,29.88,SSW,212,15.0,15.0,25,0.00,CLR,,0.00,WeatherDisplay:10.37,2013-02-26 20:17:00,
2013-02-26 14:22:00,64.2,27.6,29.88,SW,224,11.5,11.5,25,0.00,CLR,,0.00,WeatherDisplay:10.37,2013-02-26 20:22:00,
2013-02-26 14:27:00,64.1,28.5,29.88,South,181,10.4,10.4,26,0.00,CLR,,0.00,WeatherDisplay:10.37,2013-02-26 20:27:00,
2013-02-26 14:32:00,64.5,28.8,29.88,SSW,200,10.4,10.4,26,0.00,CLR,,0.00,WeatherDisplay:10.37,2013-02-26 20:32:00,
2013-02-26 14:37:00,64.2,28.6,29.88,South,170,16.0,16.0,26,0.00,CLR,,0.00,WeatherDisplay:10.37,2013-02-26 20:37:00,
2013-02-26 14:42:00,64.2,28.6,29.88,SSW,197,12.7,12.7,26,0.00,CLR,,0.00,WeatherDisplay:10.37,2013-02-26 20:42:00,
2013-02-26 14:47:00,64.5,27.9,29.87,South,169,15.0,15.0,25,0.00,CLR,,0.00,WeatherDisplay:10.37,2013-02-26 20:47:00,
2013-02-26 14:53:00,64.7,29.0,29.87,South,187,16.1,16.1,26,0.00,CLR,,0.00,WeatherDisplay:10.37,2013-02-26 20:53:00,
2013-02-26 14:58:00,64.8,28.1,29.87,SSW,203,15.0,15.0,25,0.00,CLR,,0.00,WeatherDisplay:10.37,2013-02-26 20:58:00,
2013-02-26 15:03:00,64.6,28.9,29.87,SSW,204,15.0,15.0,26,0.00,CLR,,0.00,WeatherDisplay:10.37,2013-02-26 21:03:00,
2013-02-26 15:08:00,64.3,28.7,29.87,SSW,211,13.8,13.8,26,0.00,CLR,,0.00,WeatherDisplay:10.37,2013-02-26 21:08:00,
2013-02-26 15:13:00,64.0,28.4,29.87,SSW,208,15.0,15.0,26,0.00,CLR,,0.00,WeatherDisplay:10.37,2013-02-26 21:13:00,
2013-02-26 15:18:00,63.8,28.2,29.87,South,184,12.7,12.7,26,0.00,CLR,,0.00,WeatherDisplay:10.37,2013-02-26 21:18:00,
2013-02-26 15:23:00,63.8,28.2,29.87,South,169,13.8,13.8,26,0.00,CLR,,0.00,WeatherDisplay:10.37,2013-02-26 21:23:00,
2013-02-26 15:28:00,63.9,28.3,29.87,SW,214,11.5,11.5,26,0.00,CLR,,0.00,WeatherDisplay:10.37,2013-02-26 21:28:00,
2013-02-26 15:33:00,63.8,28.2,29.87,SSW,205,13.8,13.8,26,0.00,CLR,,0.00,WeatherDisplay:10.37,2013-02-26 21:33:00,
2013-02-26 15:38:00,63.9,28.3,29.87,South,175,13.8,13.8,26,0.00,CLR,,0.00,WeatherDisplay:10.37,2013-02-26 21:38:00,
2013-02-26 15:43:00,63.9,28.3,29.87,SSE,162,12.7,12.7,26,0.00,CLR,,0.00,WeatherDisplay:10.37,2013-02-26 21:43:00,
2013-02-26 15:48:00,64.1,28.5,29.87,SW,236,11.5,11.5,26,0.00,CLR,,0.00,WeatherDisplay:10.37,2013-02-26 21:48:00,
2013-02-26 15:53:00,64.4,27.8,29.87,SW,232,12.0,12.0,25,0.00,CLR,,0.00,WeatherDisplay:10.37,2013-02-26 21:53:00,
2013-02-26 15:58:00,64.2,28.6,29.86,SW,215,12.7,12.7,26,0.00,CLR,,0.00,WeatherDisplay:10.37,2013-02-26 21:58:00,
2013-02-26 16:03:00,64.0,27.4,29.86,SSW,210,15.0,15.0,25,0.00,CLR,,0.00,WeatherDisplay:10.37,2013-02-26 22:03:00,
2013-02-26 16:08:00,63.9,28.3,29.86,South,181,13.8,13.8,26,0.00,CLR,,0.00,WeatherDisplay:10.37,2013-02-26 22:08:00,
2013-02-26 16:13:00,64.0,28.4,29.86,South,191,11.5,11.5,26,0.00,CLR,,0.00,WeatherDisplay:10.37,2013-02-26 22:13:00,
2013-02-26 16:18:00,64.3,27.7,29.86,SSW,205,13.0,13.0,25,0.00,CLR,,0.00,WeatherDisplay:10.37,2013-02-26 22:18:00,
2013-02-26 16:23:00,64.7,29.0,29.86,SSW,204,11.5,11.5,26,0.00,CLR,,0.00,WeatherDisplay:10.37,2013-02-26 22:23:00,
2013-02-26 16:28:00,64.6,27.9,29.86,SSW,212,16.1,16.1,25,0.00,CLR,,0.00,WeatherDisplay:10.37,2013-02-26 22:28:00,
2013-02-26 16:33:00,64.6,27.9,29.86,SSW,194,11.5,11.5,25,0.00,CLR,,0.00,WeatherDisplay:10.37,2013-02-26 22:33:00,
2013-02-26 16:38:00,64.4,27.8,29.86,SW,224,15.0,15.0,25,0.00,CLR,,0.00,WeatherDisplay:10.37,2013-02-26 22:38:00,
2013-02-26 16:43:00,64.3,27.7,29.86,SSW,197,11.5,11.5,25,0.00,CLR,,0.00,WeatherDisplay:10.37,2013-02-26 22:43:00,
2013-02-26 16:48:00,64.1,27.5,29.86,South,180,11.5,11.5,25,0.00,CLR,,0.00,WeatherDisplay:10.37,2013-02-26 22:48:00,
2013-02-26 16:53:00,64.0,27.4,29.87,SW,217,11.5,11.5,25,0.00,CLR,,0.00,WeatherDisplay:10.37,2013-02-26 22:53:00,
2013-02-26 16:58:00,63.9,27.4,29.87,SW,217,11.5,11.5,25,0.00,CLR,,0.00,WeatherDisplay:10.37,2013-02-26 22:58:00,
2013-02-26 17:03:00,64.1,27.5,29.87,SSW,197,10.4,10.4,25,0.00,CLR,,0.00,WeatherDisplay:10.37,2013-02-26 23:03:00,
2013-02-26 17:08:00,64.3,27.7,29.87,SSE,166,11.5,11.5,25,0.00,CLR,,0.00,WeatherDisplay:10.37,2013-02-26 23:08:00,
2013-02-26 17:13:00,64.3,27.7,29.86,SSE,164,12.7,12.7,25,0.00,CLR,,0.00,WeatherDisplay:10.37,2013-02-26 23:13:00,
2013-02-26 17:18:00,64.2,26.6,29.86,South,179,11.5,11.5,24,0.00,CLR,,0.00,WeatherDisplay:10.37,2013-02-26 23:18:00,
2013-02-26 17:23:00,64.2,26.6,29.87,South,174,11.5,11.5,24,0.00,CLR,,0.00,WeatherDisplay:10.37,2013-02-26 23:23:00,
2013-02-26 17:28:00,63.8,26.3,29.87,SSW,207,12.7,12.7,24,0.00,CLR,,0.00,WeatherDisplay:10.37,2013-02-26 23:28:00,
2013-02-26 17:33:00,63.4,26.9,29.87,South,183,8.1,8.1,25,0.00,CLR,,0.00,WeatherDisplay:10.37,2013-02-26 23:33:00,
2013-02-26 17:38:00,63.1,26.7,29.87,SSE,167,10.0,10.0,25,0.00,CLR,,0.00,WeatherDisplay:10.37,2013-02-26 23:38:00,
2013-02-26 17:43:00,62.9,27.5,29.87,SSW,203,6.9,6.9,26,0.00,CLR,,0.00,WeatherDisplay:10.37,2013-02-26 23:43:00,
2013-02-26 17:48:00,62.7,27.3,29.87,SSW,193,6.9,6.9,26,0.00,CLR,,0.00,WeatherDisplay:10.37,2013-02-26 23:48:00,
2013-02-26 17:53:00,62.5,27.1,29.87,South,182,8.1,8.1,26,0.00,CLR,,0.00,WeatherDisplay:10.37,2013-02-26 23:53:00,
2013-02-26 17:58:00,62.3,26.9,29.86,South,190,9.2,9.2,26,0.00,CLR,,0.00,WeatherDisplay:10.37,2013-02-26 23:58:00,
2013-02-26 18:03:00,62.1,26.8,29.87,SSW,210,9.2,9.2,26,0.00,CLR,,0.00,WeatherDisplay:10.37,2013-02-27 00:03:00,
2013-02-26 18:08:00,61.8,27.4,29.87,SSW,198,8.1,8.1,27,0.00,CLR,,0.00,WeatherDisplay:10.37,2013-02-27 00:08:00,
2013-02-26 18:13:00,61.6,27.3,29.86,SSW,207,8.1,8.1,27,0.00,CLR,,0.00,WeatherDisplay:10.37,2013-02-27 00:13:00,
2013-02-26 18:18:00,61.3,27.0,29.86,SSW,210,8.1,8.1,27,0.00,CLR,,0.00,WeatherDisplay:10.37,2013-02-27 00:18:00,
2013-02-26 18:23:00,61.0,26.7,29.87,SSW,211,8.1,8.1,27,0.00,CLR,,0.00,WeatherDisplay:10.37,2013-02-27 00:23:00,
2013-02-26 18:28:00,60.6,27.3,29.87,SSW,208,6.9,6.9,28,0.00,CLR,,0.00,WeatherDisplay:10.37,2013-02-27 00:28:00,
2013-02-26 18:33:00,60.0,26.8,29.87,South,170,4.6,4.6,28,0.00,CLR,,0.00,WeatherDisplay:10.37,2013-02-27 00:33:00,
2013-02-26 18:38:00,59.6,27.3,29.87,SSW,208,3.5,3.6,29,0.00,CLR,,0.00,WeatherDisplay:10.37,2013-02-27 00:38:00,
2013-02-26 18:43:00,59.3,27.8,29.87,SW,228,3.5,3.5,30,0.00,CLR,,0.00,WeatherDisplay:10.37,2013-02-27 00:43:00,
2013-02-26 18:48:00,59.0,27.6,29.88,SSE,159,3.5,3.5,30,0.00,CLR,,0.00,WeatherDisplay:10.37,2013-02-27 00:48:00,
2013-02-26 18:53:00,58.6,28.0,29.87,ESE,122,1.1,1.1,31,0.00,CLR,,0.00,WeatherDisplay:10.37,2013-02-27 00:53:00,
2013-02-26 18:58:00,58.5,27.9,29.87,SSE,160,3.0,3.0,31,0.00,CLR,,0.00,WeatherDisplay:10.37,2013-02-27 00:58:00,
2013-02-26 19:03:00,58.3,27.8,29.87,SSE,151,3.5,3.5,31,0.00,CLR,,0.00,WeatherDisplay:10.37,2013-02-27 01:03:00,
2013-02-26 19:08:00,58.1,28.4,29.87,SSE,158,2.3,2.3,32,0.00,CLR,,0.00,WeatherDisplay:10.37,2013-02-27 01:08:00,
2013-02-26 19:13:00,58.0,28.3,29.87,SE,129,2.3,2.3,32,0.00,CLR,,0.00,WeatherDisplay:10.37,2013-02-27 01:13:00,
2013-02-26 19:18:00,57.9,28.2,29.87,SE,146,2.3,2.3,32,0.00,CLR,,0.00,WeatherDisplay:10.37,2013-02-27 01:18:00,
2013-02-26 19:23:00,57.4,28.5,29.88,South,184,1.1,0.0,33,0.00,CLR,,0.00,WeatherDisplay:10.37,2013-02-27 01:23:00,
2013-02-26 19:28:00,56.9,28.8,29.87,SSE,160,2.3,2.3,34,0.00,CLR,,0.00,WeatherDisplay:10.37,2013-02-27 01:28:00,
2013-02-26 19:33:00,56.8,28.7,29.88,SSW,205,2.3,2.3,34,0.00,CLR,,0.00,WeatherDisplay:10.37,2013-02-27 01:33:00,
2013-02-26 19:38:00,56.9,28.8,29.88,SSW,207,4.6,4.6,34,0.00,CLR,,0.00,WeatherDisplay:10.37,2013-02-27 01:38:00,
2013-02-26 19:43:00,57.2,28.3,29.88,South,191,4.0,4.0,33,0.00,CLR,,0.00,WeatherDisplay:10.37,2013-02-27 01:43:00,
2013-02-26 19:48:00,57.3,28.4,29.88,South,177,3.5,3.5,33,0.00,CLR,,0.00,WeatherDisplay:10.37,2013-02-27 01:48:00,
2013-02-26 19:53:00,57.1,28.2,29.88,South,181,3.5,3.5,33,0.00,CLR,,0.00,WeatherDisplay:10.37,2013-02-27 01:53:00,
2013-02-26 19:58:00,57.0,28.1,29.88,South,186,3.5,3.6,33,0.00,CLR,,0.00,WeatherDisplay:10.37,2013-02-27 01:58:00,
2013-02-26 20:03:00,57.1,28.2,29.88,SSW,193,3.5,3.5,33,0.00,CLR,,0.00,WeatherDisplay:10.37,2013-02-27 02:03:00,
2013-02-26 20:08:00,57.0,28.1,29.88,South,188,3.5,3.5,33,0.00,CLR,,0.00,WeatherDisplay:10.37,2013-02-27 02:08:00,
2013-02-26 20:13:00,56.8,28.0,29.88,SSW,194,4.0,4.0,33,0.00,CLR,,0.00,WeatherDisplay:10.37,2013-02-27 02:13:00,
2013-02-26 20:19:00,56.7,27.9,29.88,SSW,201,3.5,3.5,33,0.00,CLR,,0.00,WeatherDisplay:10.37,2013-02-27 02:19:00,
2013-02-26 20:24:00,56.6,27.8,29.88,SW,224,3.5,3.5,33,0.00,CLR,,0.00,WeatherDisplay:10.37,2013-02-27 02:24:00,
2013-02-26 20:29:00,56.6,27.8,29.88,SSW,207,3.5,3.5,33,0.00,CLR,,0.00,WeatherDisplay:10.37,2013-02-27 02:29:00,
2013-02-26 20:34:00,56.3,27.5,29.88,South,179,3.5,3.5,33,0.00,CLR,,0.00,WeatherDisplay:10.37,2013-02-27 02:34:00,
2013-02-26 20:39:00,56.3,28.3,29.88,South,190,3.5,3.5,34,0.00,CLR,,0.00,WeatherDisplay:10.37,2013-02-27 02:39:00,
2013-02-26 20:44:00,56.2,28.2,29.88,SSW,193,5.0,5.0,34,0.00,CLR,,0.00,WeatherDisplay:10.37,2013-02-27 02:44:00,
2013-02-26 20:49:00,56.3,27.5,29.89,SSW,194,4.6,4.6,33,0.00,CLR,,0.00,WeatherDisplay:10.37,2013-02-27 02:49:00,
2013-02-26 20:54:00,56.1,28.1,29.89,SW,214,3.5,3.5,34,0.00,CLR,,0.00,WeatherDisplay:10.37,2013-02-27 02:54:00,
2013-02-26 20:59:00,55.7,27.7,29.89,SSW,211,3.5,3.5,34,0.00,CLR,,0.00,WeatherDisplay:10.37,2013-02-27 02:59:00,
2013-02-26 21:04:00,55.6,27.6,29.89,SSW,201,3.5,3.5,34,0.00,CLR,,0.00,WeatherDisplay:10.37,2013-02-27 03:04:00,
2013-02-26 21:09:00,55.6,27.6,29.89,South,169,5.0,5.0,34,0.00,CLR,,0.00,WeatherDisplay:10.37,2013-02-27 03:09:00,
2013-02-26 21:14:00,55.7,27.0,29.89,SSW,205,3.5,3.5,33,0.00,CLR,,0.00,WeatherDisplay:10.37,2013-02-27 03:14:00,
2013-02-26 21:19:00,55.6,26.9,29.90,SSW,207,3.5,3.5,33,0.00,CLR,,0.00,WeatherDisplay:10.37,2013-02-27 03:19:00,
2013-02-26 21:24:00,55.4,26.7,29.90,SSW,198,4.0,4.0,33,0.00,CLR,,0.00,WeatherDisplay:10.37,2013-02-27 03:24:00,
2013-02-26 21:29:00,55.2,27.3,29.90,SSW,195,3.5,3.5,34,0.00,CLR,,0.00,WeatherDisplay:10.37,2013-02-27 03:29:00,
2013-02-26 21:34:00,55.1,27.2,29.90,South,183,3.5,3.5,34,0.00,CLR,,0.00,WeatherDisplay:10.37,2013-02-27 03:34:00,
2013-02-26 21:39:00,54.9,27.0,29.90,South,174,2.3,2.3,34,0.00,CLR,,0.00,WeatherDisplay:10.37,2013-02-27 03:39:00,
2013-02-26 21:44:00,54.7,26.8,29.90,SSW,198,2.3,2.3,34,0.00,CLR,,0.00,WeatherDisplay:10.37,2013-02-27 03:44:00,
2013-02-26 21:49:00,54.7,26.8,29.90,SSW,200,4.0,4.0,34,0.00,CLR,,0.00,WeatherDisplay:10.37,2013-02-27 03:49:00,
2013-02-26 21:54:00,55.0,26.4,29.90,SSW,197,2.3,2.3,33,0.00,CLR,,0.00,WeatherDisplay:10.37,2013-02-27 03:54:00,
2013-02-26 21:59:00,54.7,26.8,29.90,SSW,201,3.5,3.5,34,0.00,CLR,,0.00,WeatherDisplay:10.37,2013-02-27 03:59:00,
2013-02-26 22:04:00,54.2,27.1,29.90,SSW,200,3.5,3.5,35,0.00,CLR,,0.00,WeatherDisplay:10.37,2013-02-27 04:04:00,
2013-02-26 22:09:00,53.8,26.8,29.90,SSW,197,2.3,2.3,35,0.00,CLR,,0.00,WeatherDisplay:10.37,2013-02-27 04:09:00,
2013-02-26 22:14:00,53.5,26.5,29.89,SSW,200,2.3,2.3,35,0.00,CLR,,0.00,WeatherDisplay:10.37,2013-02-27 04:14:00,
2013-02-26 22:19:00,53.2,26.2,29.89,South,189,1.1,1.1,35,0.00,CLR,,0.00,WeatherDisplay:10.37,2013-02-27 04:19:00,
2013-02-26 22:24:00,53.1,26.1,29.89,SW,226,2.3,2.3,35,0.00,CLR,,0.00,WeatherDisplay:10.37,2013-02-27 04:24:00,
2013-02-26 22:29:00,53.2,26.2,29.89,SW,217,3.5,3.5,35,0.00,CLR,,0.00,WeatherDisplay:10.37,2013-02-27 04:29:00,
2013-02-26 22:34:00,53.2,25.5,29.89,SW,215,3.5,3.5,34,0.00,CLR,,0.00,WeatherDisplay:10.37,2013-02-27 04:34:00,
2013-02-26 22:39:00,53.2,26.2,29.89,SSW,205,2.3,2.3,35,0.00,CLR,,0.00,WeatherDisplay:10.37,2013-02-27 04:39:00,
2013-02-26 22:44:00,53.1,25.4,29.89,SW,220,2.3,2.3,34,0.00,CLR,,0.00,WeatherDisplay:10.37,2013-02-27 04:44:00,
2013-02-26 22:49:00,52.8,25.9,29.89,SSW,197,2.3,2.3,35,0.00,CLR,,0.00,WeatherDisplay:10.37,2013-02-27 04:49:00,
2013-02-26 22:54:00,52.4,25.5,29.89,SSW,203,3.5,3.5,35,0.00,CLR,,0.00,WeatherDisplay:10.37,2013-02-27 04:54:00,
2013-02-26 22:59:00,52.0,25.8,29.89,South,183,2.3,2.3,36,0.00,CLR,,0.00,WeatherDisplay:10.37,2013-02-27 04:59:00,
2013-02-26 23:00:00,51.9,25.8,29.89,SSW,194,2.3,2.3,36,0.00,CLR,,0.00,WeatherDisplay:10.37,2013-02-27 05:00:00,
2013-02-26 23:05:00,51.6,26.1,29.89,SSE,166,3.5,3.5,37,0.00,CLR,,0.00,WeatherDisplay:10.37,2013-02-27 05:05:00,
2013-02-26 23:10:00,51.3,25.9,29.89,South,176,2.3,2.3,37,0.00,CLR,,0.00,WeatherDisplay:10.37,2013-02-27 05:10:00,
2013-02-26 23:15:00,50.9,26.2,29.89,SSW,204,1.1,1.1,38,0.00,CLR,,0.00,WeatherDisplay:10.37,2013-02-27 05:15:00,
2013-02-26 23:20:00,50.5,25.8,29.89,SSW,195,1.1,1.1,38,0.00,CLR,,0.00,WeatherDisplay:10.37,2013-02-27 05:20:00,
2013-02-26 23:25:00,50.4,25.7,29.89,South,173,6.0,6.0,38,0.00,CLR,,0.00,WeatherDisplay:10.37,2013-02-27 05:25:00,
2013-02-26 23:30:00,50.3,26.3,29.90,SSW,197,4.6,4.6,39,0.00,CLR,,0.00,WeatherDisplay:10.37,2013-02-27 05:30:00,
2013-02-26 23:35:00,50.4,26.3,29.90,South,190,3.5,3.5,39,0.00,CLR,,0.00,WeatherDisplay:10.37,2013-02-27 05:35:00,
2013-02-26 23:40:00,50.4,26.3,29.90,SSW,193,2.3,2.3,39,0.00,CLR,,0.00,WeatherDisplay:10.37,2013-02-27 05:40:00,
2013-02-26 23:45:00,50.3,26.3,29.90,SSW,194,3.5,3.5,39,0.00,CLR,,0.00,WeatherDisplay:10.37,2013-02-27 05:45:00,
2013-02-26 23:50:00,50.2,26.8,29.90,South,188,3.5,3.5,40,0.00,CLR,,0.00,WeatherDisplay:10.37,2013-02-27 05:50:00,
2013-02-26 23:55:00,49.7,26.3,29.89,SSE,167,3.5,4.2,40,0.00,CLR,,0.00,WeatherDisplay:10.37,2013-02-27 05:55:00,